When you browse on this site, cookies collect data to enhance your experience and personalize the content and advertising you see.
Visit our Privacy Policy to learn more. By continuing to use the site, you agree to this use of cookies and data.
  • En España
  • Lista de países
  • Para 7 días
  • Temperatura del agua
  • Mapa Satelital
  • El tiempo en el mapa
  • Informadores
  • user-avatar
    Iniciar sesión

    Tiempo cada hora Constantine

    Hoy, 22 Marzo, Viernes

    Tiempo Temperatura Precipitaciones Viento Presión Humedad
    00:00 +9°C° 2.7 mm 3 mps 709 mmHg 98%
    01:00 +9°C° 0.8 mm 3 mps 709 mmHg 98%
    02:00 +9°C° 0.8 mm 3 mps 709 mmHg 98%
    03:00 +9°C° 0.8 mm 3 mps 709 mmHg 97%
    04:00 +9°C° 0.4 mm 2 mps 709 mmHg 97%
    05:00 +8°C° 0.4 mm 2 mps 709 mmHg 97%
    06:00 +8°C° 0.4 mm 2 mps 710 mmHg 97%
    07:00 +9°C° 0.1 mm 2 mps 710 mmHg 90%
    08:00 +10°C° 0.1 mm 2 mps 710 mmHg 83%
    09:00 +12°C° 0.1 mm 2 mps 711 mmHg 77%
    10:00 +13°C° 0.3 mm 2 mps 711 mmHg 72%
    11:00 +13°C° 0.3 mm 2 mps 711 mmHg 68%
    12:00 +14°C° 0.3 mm 2 mps 711 mmHg 64%
    13:00 +13°C° 0.7 mm 3 mps 711 mmHg 68%
    14:00 +12°C° 0.7 mm 3 mps 711 mmHg 72%
    15:00 +12°C° 0.7 mm 3 mps 711 mmHg 76%
    16:00 +11°C° 0.2 mm 3 mps 711 mmHg 82%
    17:00 +9°C° 0.2 mm 3 mps 711 mmHg 88%
    18:00 +8°C° 0.2 mm 2 mps 711 mmHg 94%
    19:00 +8°C° 0.1 mm 2 mps 711 mmHg 95%
    20:00 +9°C° 0.1 mm 1 mps 712 mmHg 95%
    21:00 +9°C° 0.1 mm 1 mps 712 mmHg 96%
    22:00 +8°C° 0.2 mm 1 mps 712 mmHg 96%
    23:00 +8°C° 0.2 mm 1 mps 712 mmHg 97%

    Mañana, 23 Marzo, Sábado

    Tiempo Temperatura Precipitaciones Viento Presión Humedad
    00:00 +8°C° 0.2 mm 1 mps 712 mmHg 97%
    01:00 +8°C° 0.5 mm 1 mps 712 mmHg 96%
    02:00 +8°C° 0.5 mm 1 mps 712 mmHg 95%
    03:00 +8°C° 0.5 mm 1 mps 712 mmHg 94%
    04:00 +8°C° 0.1 mm 1 mps 712 mmHg 94%
    05:00 +8°C° 0.1 mm 1 mps 712 mmHg 94%
    06:00 +8°C° 0.1 mm 1 mps 713 mmHg 94%
    07:00 +9°C° 0 mm 1 mps 713 mmHg 92%
    08:00 +9°C° 0 mm 2 mps 713 mmHg 90%
    09:00 +9°C° 0 mm 2 mps 714 mmHg 89%
    10:00 +10°C° 0.1 mm 2 mps 714 mmHg 88%
    11:00 +10°C° 0.1 mm 3 mps 714 mmHg 87%
    12:00 +11°C° 0.1 mm 3 mps 714 mmHg 86%
    13:00 +11°C° 0.1 mm 3 mps 714 mmHg 83%
    14:00 +12°C° 0.1 mm 3 mps 714 mmHg 80%
    15:00 +12°C° 0.1 mm 3 mps 714 mmHg 78%
    16:00 +12°C° 0 mm 2 mps 714 mmHg 82%
    17:00 +10°C° 0 mm 2 mps 714 mmHg 86%
    18:00 +10°C° 0 mm 1 mps 714 mmHg 91%
    19:00 +10°C° 0 mm 1 mps 714 mmHg 92%
    20:00 +9°C° 0 mm 1 mps 714 mmHg 94%
    21:00 +9°C° 0 mm 1 mps 715 mmHg 95%
    22:00 +8°C° 0 mm 1 mps 715 mmHg 95%
    23:00 +8°C° 0 mm 1 mps 715 mmHg 94%

    Pasado mañana, 24 Marzo, Domingo

    Tiempo Temperatura Precipitaciones Viento Presión Humedad
    00:00 +8°C° 0 mm 1 mps 715 mmHg 94%
    01:00 +8°C° 0 mm 1 mps 714 mmHg 94%
    02:00 +7°C° 0 mm 1 mps 714 mmHg 93%
    03:00 +7°C° 0 mm 1 mps 714 mmHg 93%
    04:00 +7°C° 0 mm 1 mps 714 mmHg 92%
    05:00 +7°C° 0 mm 1 mps 714 mmHg 91%
    06:00 +7°C° 0 mm 1 mps 714 mmHg 90%
    07:00 +10°C° 0 mm 1 mps 715 mmHg 81%
    08:00 +12°C° 0 mm 1 mps 715 mmHg 72%
    09:00 +14°C° 0 mm 2 mps 716 mmHg 63%
    10:00 +16°C° 0 mm 1 mps 716 mmHg 58%
    11:00 +18°C° 0 mm 1 mps 716 mmHg 53%
    12:00 +19°C° 0 mm 1 mps 716 mmHg 48%
    13:00 +19°C° 0 mm 1 mps 715 mmHg 47%
    14:00 +19°C° 0 mm 1 mps 715 mmHg 47%
    15:00 +19°C° 0 mm 1 mps 715 mmHg 46%
    16:00 +16°C° 0 mm 1 mps 714 mmHg 56%
    17:00 +15°C° 0 mm 2 mps 714 mmHg 65%
    18:00 +13°C° 0 mm 2 mps 714 mmHg 74%
    19:00 +12°C° 0 mm 2 mps 714 mmHg 78%
    20:00 +11°C° 0 mm 1 mps 714 mmHg 82%
    21:00 +10°C° 0 mm 1 mps 714 mmHg 86%
    22:00 +10°C° 0 mm 1 mps 714 mmHg 84%
    23:00 +10°C° 0 mm 1 mps 714 mmHg 82%

    25 Marzo, Lunes

    Tiempo Temperatura Precipitaciones Viento Presión Humedad
    00:00 +9°C° 0 mm 1 mps 714 mmHg 80%
    01:00 +9°C° 0 mm 1 mps 713 mmHg 78%
    02:00 +9°C° 0 mm 1 mps 713 mmHg 75%
    03:00 +8°C° 0 mm 2 mps 713 mmHg 73%
    04:00 +8°C° 0 mm 2 mps 713 mmHg 72%
    05:00 +8°C° 0 mm 2 mps 713 mmHg 71%
    06:00 +8°C° 0 mm 2 mps 713 mmHg 71%
    07:00 +12°C° 0 mm 2 mps 714 mmHg 65%
    08:00 +14°C° 0 mm 2 mps 714 mmHg 59%
    09:00 +16°C° 0 mm 2 mps 715 mmHg 54%
    10:00 +17°C° 0 mm 2 mps 715 mmHg 51%
    11:00 +18°C° 0 mm 2 mps 714 mmHg 49%
    12:00 +20°C° 0 mm 1 mps 714 mmHg 47%
    13:00 +19°C° 0.1 mm 2 mps 714 mmHg 49%
    14:00 +19°C° 0.1 mm 2 mps 713 mmHg 52%
    15:00 +19°C° 0.1 mm 2 mps 713 mmHg 54%
    16:00 +17°C° 0.2 mm 2 mps 713 mmHg 65%
    17:00 +15°C° 0.2 mm 2 mps 712 mmHg 76%
    18:00 +13°C° 0.2 mm 2 mps 712 mmHg 87%
    19:00 +12°C° 0 mm 1 mps 712 mmHg 89%
    20:00 +12°C° 0 mm 1 mps 713 mmHg 90%
    21:00 +10°C° 0 mm 0 mps 713 mmHg 91%
    22:00 +10°C° 0 mm 1 mps 713 mmHg 91%
    23:00 +10°C° 0 mm 1 mps 712 mmHg 90%

    26 Marzo, Martes

    Tiempo Temperatura Precipitaciones Viento Presión Humedad
    00:00 +10°C° 0 mm 1 mps 712 mmHg 89%
    01:00 +10°C° 0 mm 1 mps 712 mmHg 89%
    02:00 +10°C° 0 mm 1 mps 712 mmHg 88%
    03:00 +10°C° 0 mm 1 mps 712 mmHg 88%
    04:00 +10°C° 0 mm 1 mps 712 mmHg 88%
    05:00 +10°C° 0 mm 1 mps 712 mmHg 87%
    06:00 +10°C° 0 mm 1 mps 712 mmHg 87%
    07:00 +13°C° 0 mm 1 mps 712 mmHg 78%
    08:00 +14°C° 0 mm 0 mps 713 mmHg 70%
    09:00 +17°C° 0 mm 0 mps 713 mmHg 62%
    10:00 +19°C° 0 mm 1 mps 713 mmHg 58%
    11:00 +20°C° 0 mm 1 mps 713 mmHg 54%
    12:00 +20°C° 0 mm 2 mps 713 mmHg 50%
    13:00 +20°C° 0 mm 2 mps 713 mmHg 54%
    14:00 +20°C° 0 mm 3 mps 713 mmHg 57%
    15:00 +20°C° 0 mm 4 mps 713 mmHg 60%
    16:00 +18°C° 0 mm 3 mps 712 mmHg 70%
    17:00 +16°C° 0 mm 3 mps 712 mmHg 79%
    18:00 +14°C° 0 mm 2 mps 712 mmHg 89%
    19:00 +13°C° 0 mm 2 mps 713 mmHg 90%
    20:00 +12°C° 0 mm 2 mps 713 mmHg 91%
    21:00 +11°C° 0 mm 1 mps 713 mmHg 92%
    22:00 +10°C° 0 mm 1 mps 713 mmHg 91%
    23:00 +10°C° 0 mm 1 mps 713 mmHg 90%

    27 Marzo, Miércoles

    Tiempo Temperatura Precipitaciones Viento Presión Humedad
    00:00 +10°C° 0 mm 1 mps 713 mmHg 89%
    01:00 +10°C° 0 mm 1 mps 713 mmHg 87%
    02:00 +10°C° 0 mm 1 mps 713 mmHg 85%
    03:00 +9°C° 0 mm 1 mps 713 mmHg 84%
    04:00 +9°C° 0 mm 1 mps 713 mmHg 82%
    05:00 +9°C° 0 mm 1 mps 713 mmHg 80%
    06:00 +9°C° 0 mm 1 mps 714 mmHg 77%
    07:00 +12°C° 0 mm 2 mps 714 mmHg 71%
    08:00 +14°C° 0 mm 2 mps 715 mmHg 64%
    09:00 +17°C° 0 mm 2 mps 715 mmHg 58%
    10:00 +18°C° 0 mm 2 mps 715 mmHg 56%
    11:00 +19°C° 0 mm 3 mps 715 mmHg 54%
    12:00 +20°C° 0 mm 3 mps 715 mmHg 53%
    13:00 +20°C° 0 mm 4 mps 715 mmHg 53%
    14:00 +19°C° 0 mm 4 mps 715 mmHg 54%
    15:00 +19°C° 0 mm 4 mps 715 mmHg 55%
    16:00 +17°C° 0 mm 4 mps 715 mmHg 62%
    17:00 +16°C° 0 mm 3 mps 714 mmHg 68%
    18:00 +13°C° 0 mm 3 mps 714 mmHg 75%
    19:00 +13°C° 0 mm 2 mps 715 mmHg 76%
    20:00 +13°C° 0 mm 2 mps 715 mmHg 77%
    21:00 +12°C° 0 mm 1 mps 715 mmHg 78%
    22:00 +12°C° 0 mm 1 mps 715 mmHg 76%
    23:00 +11°C° 0 mm 1 mps 715 mmHg 74%
    Mostrar más